This is the latest recevied weather packets stored in our database for station/object NEWPRT. If no packets are shown the sender has not sent any weather packets the latest 1 day(s).
| Time | Temp. | Humidity | Pressure | Rain* | Wind** | Luminosity | Snow |
|---|---|---|---|---|---|---|---|
| 1778111135 | - | 74% | 1023.3 hPa | 0 mm | - | - | - |
| 1778108552 | - | 73% | 1023.8 hPa | 0 mm | - | - | - |
| 1778105322 | - | 64% | 1023.9 hPa | 0 mm | - | - | - |
| 1778102738 | - | 60% | 1023.6 hPa | 0 mm | - | - | - |
| 1778101121 | - | 58% | 1023.3 hPa | 0 mm | - | - | - |
| 1778100799 | - | 57% | 1023.4 hPa | 0 mm | - | - | - |
| 1778100475 | - | 58% | 1023.5 hPa | 0 mm | - | - | - |
| 1778099184 | - | 60% | 1023.5 hPa | 0 mm | - | - | - |
| 1778098860 | - | 59% | 1023.5 hPa | 0 mm | - | - | - |
| 1778096599 | - | 56% | 1023.3 hPa | 0 mm | - | - | - |
| 1778096276 | - | 55% | 1023.3 hPa | 0 mm | - | - | - |
| 1778094984 | - | 58% | 1023.4 hPa | 0 mm | - | - | - |
| 1778094338 | - | 58% | 1023.3 hPa | 0 mm | - | - | - |
| 1778093692 | - | 58% | 1023.4 hPa | 0 mm | - | - | - |
| 1778093370 | - | 57% | 1023.3 hPa | 0 mm | - | - | - |
| 1778093047 | - | 57% | 1023.3 hPa | 0 mm | - | - | - |
| 1778092723 | - | 57% | 1023.2 hPa | 0 mm | - | - | - |
| 1778092400 | - | 59% | 1023.4 hPa | 0 mm | - | - | - |
| 1778092077 | - | 58% | 1023.2 hPa | 0 mm | - | - | - |
| 1778091431 | - | 57% | 1023 hPa | 0 mm | - | - | - |
| 1778090785 | - | 57% | 1023 hPa | 0 mm | - | - | - |
| 1778090140 | - | 61% | 1023 hPa | 0 mm | - | - | - |
| 1778089816 | - | 62% | 1022.8 hPa | 0 mm | - | - | - |
| 1778089493 | - | 60% | 1022.9 hPa | 0 mm | - | - | - |
| 1778089170 | - | 59% | 1022.8 hPa | 0 mm | - | - | - |
* Rain latest hour (hover to see other rain measurements)
** Current wind speed in m/s (hover to see current wind gust speed)